Regional Weather Roundup
Issued by NWS

Home | Current Version | Previous Version | Graphics & Text | Print | Product List | Glossary On
Versions: 1 2 3 4 5 6 7 8 9 10 11 12 13 14 15 16 17 18 19 20 21 22 23 24 25 26 27 28 29 30 31 32 33 34 35 36 37 38 39 40 41 42 43 44 45 46 47 48 49 50
476
ASUS43 KFSD 220902
RWRSD

WEATHER ROUNDUP FOR SOUTH DAKOTA
NATIONAL WEATHER SERVICE SIOUX FALLS SD
400 AM CDT FRI SEP 22 2017

NOTE: "FAIR" INDICATES FEW OR NO CLOUDS BELOW 12,000 FEET WITH NO
SIGNIFICANT WEATHER AND/OR OBSTRUCTIONS TO VISIBILITY.


SDZ001>005-009-010-012>017-221000-
NORTHWEST AND NORTH CENTRAL SOUTH DAKOTA

CITY           SKY/WX    TMP DP  RH WIND       PRES   REMARKS
BUFFALO          N/A     51  35  54 NE21G32   29.75F
FAITH            N/A     51  44  77 N22       29.70F
MOBRIDGE       CLEAR     60  50  69 N17G25    29.65F
$$

SDZ012>016-024>037-041>051-057-063-072>074-221000-
SOUTHWEST AND SOUTH CENTRAL SOUTH DAKOTA

CITY           SKY/WX    TMP DP  RH WIND       PRES   REMARKS
RAPID CTY ARPT NOT AVBL
PIERRE         CLEAR     65  63  93 SE9       29.57S
CUSTER         CLOUDY    47  37  68 N9        29.77F
ELLSWORTH AFB  CLEAR     52  38  60 N23G29    29.74F
PHILIP         CLEAR     56  47  71 NW9       29.64R
PINE RIDGE     CLEAR     53  43  68 CALM      29.69R
SPEARFISH      CLOUDY    46  39  76 W6        29.85S
WINNER         FAIR      77  64  64 S21G26    29.58F
$$

SDZ004>011-016>023-039-040-221000-
NORTHEAST SOUTH DAKOTA

CITY           SKY/WX    TMP DP  RH WIND       PRES   REMARKS
ABERDEEN       CLEAR     66  65  96 N6        29.66S
WATERTOWN      CLEAR     72  71  97 SE12      29.70R
BROOKINGS      CLEAR     73  71  93 SE13      29.73R
SISSETON         N/A     68  66  93 SE9       29.70F
$$

SDZ017-020-022-023-036>040-048>070-221000-
SOUTHEAST SOUTH DAKOTA

CITY           SKY/WX    TMP DP  RH WIND       PRES   REMARKS
SIOUX FALLS    CLEAR     78  73  84 S14       29.72S
HURON          CLEAR     75  71  87 SE14      29.61S
MITCHELL       CLEAR     79  71  76 S16       29.63F
YANKTON        CLEAR     79  71  76 S16G25    29.69S
$$

ABBREVIATIONS USED IN REMARKS
   TC - TEMPERATURE IN CELSIUS
  WCI - WIND CHILL INDEX
   HX - HEAT INDEX
  VSB - VISIBILITY





USA.gov is the U.S. government's official web portal to all federal, state and local government web resources and services.